Alexandria Esle, LA

4:34 AM CST on November 25, 2017 (GMT -0600)
Alexandria Esler Regional

Weather History for KESF - November, 2011

Change the Weather History Date:

Thursday, November 10, 2011

  Actual Average Record
Temperature  
Mean Temperature 48 °F -  
Max Temperature 62 °F 68 °F 84 °F (2002)
Min Temperature 34 °F 44 °F 26 °F (1991)
Degree Days  
Heating Degree Days 16    
Moisture  
Dew Point 32 °F    
Average Humidity 57    
Maximum Humidity 93    
Minimum Humidity 22    
Precipitation  
Precipitation 0.00 in - - ()
Sea Level Pressure  
Sea Level Pressure 30.31 in    
Wind  
Wind Speed 5 mph (North)    
Max Wind Speed 12 mph    
Max Gust Speed 22 mph    
Visibility 10 miles    
Events Snow    
Averages and records for this station are not official NWS values.
T = Trace of Precipitation, MM = Missing Value Source: NWS Daily Summary

Daily Weather History Graph

Daily Weather History Graph

Search for Another Location

Airport or City:

Trip Planner

Search our weather history database for the weather conditions in past years. The results will help you decide how hot, cold, wet, or windy it might be!

Date:

Astronomy

Nov. 10, 2011 Rise Set
Actual Time 6:32 AM CST 5:13 PM CST
Civil Twilight 6:06 AM CST 5:39 PM CST
Nautical Twilight 5:37 AM CST 6:08 PM CST
Astronomical Twilight 5:09 AM CST 6:36 PM CST
Moon 5:05 PM CST (11/10) 6:22 AM CST (11/10)
Length of Visible Light 11h 32m
Length of Day
10h 41m
Full, 100% of the Moon is Illuminated
Nov 10
Full
Nov 10
Full
Nov 18
Last Quarter
Nov 25
New
Dec 2
First Quarter

Hourly Weather History & Observations

Time (CST) Temp. Windchill Dew Point Humidity Pressure Visibility Wind Dir Wind Speed Gust Speed Precip Events Conditions
12:53 AM 51.1 °F - 39.0 °F 63% 30.28 in 10.0 mi Variable 3.5 mph - N/A   Clear
1:53 AM 50.0 °F - 39.0 °F 66% 30.29 in 10.0 mi Variable 3.5 mph - N/A   Clear
2:53 AM 50.0 °F - 37.4 °F 62% 30.30 in 10.0 mi NNW 4.6 mph - N/A   Clear
3:53 AM 48.2 °F - 37.4 °F 66% 30.28 in 10.0 mi North 5.8 mph - N/A   Clear
4:53 AM 48.0 °F - 36.0 °F 63% 30.30 in 10.0 mi North 5.8 mph - N/A   Clear
5:53 AM 46.4 °F 44.3 °F 35.6 °F 66% 30.33 in 10.0 mi Variable 4.6 mph - N/A   Clear
6:53 AM 44.6 °F 43.1 °F 35.6 °F 71% 30.34 in 10.0 mi NNW 3.5 mph - N/A   Clear
7:53 AM 48.0 °F - 35.1 °F 61% 30.36 in 10.0 mi North 6.9 mph - N/A   Clear
8:53 AM 53.1 °F - 33.1 °F 47% 30.37 in 10.0 mi North 6.9 mph - N/A   Clear
9:53 AM 55.9 °F - 28.9 °F 36% 30.38 in 10.0 mi NE 10.4 mph - N/A   Clear
10:53 AM 57.9 °F - 26.1 °F 30% 30.37 in 10.0 mi North 11.5 mph 19.6 mph N/A   Clear
11:53 AM 60.1 °F - 26.1 °F 27% 30.35 in 10.0 mi North 11.5 mph 20.7 mph N/A   Clear
12:53 PM 62.1 °F - 25.0 °F 24% 30.31 in 10.0 mi North 8.1 mph 21.9 mph N/A   Clear
1:53 PM 62.1 °F - 23.0 °F 22% 30.28 in 10.0 mi North 9.2 mph 21.9 mph N/A   Clear
2:53 PM 62.6 °F - 23.0 °F 22% 30.27 in 10.0 mi NW 10.4 mph 16.1 mph N/A   Clear
3:53 PM 61.0 °F - 23.0 °F 23% 30.26 in 10.0 mi North 9.2 mph 17.3 mph N/A   Clear
4:53 PM 57.9 °F - 26.1 °F 30% 30.27 in 10.0 mi North 3.5 mph - N/A   Clear
5:53 PM 46.9 °F - 34.0 °F 61% 30.28 in 10.0 mi Calm Calm - N/A   Clear
6:53 PM 43.0 °F - 35.1 °F 74% 30.30 in 10.0 mi Calm Calm - N/A   Clear
7:53 PM 39.0 °F - 35.1 °F 86% 30.29 in 10.0 mi Calm Calm - N/A   Partly Cloudy
8:53 PM 37.9 °F - 35.1 °F 89% 30.30 in 10.0 mi Calm Calm - N/A   Scattered Clouds
9:53 PM 36.0 °F - 33.1 °F 89% 30.30 in 10.0 mi Calm Calm - 0.00 in   Clear
10:53 PM 35.6 °F - 33.8 °F 93% 30.29 in 9.0 mi Calm Calm - N/A Snow Light Snow
11:53 PM 34.0 °F - 32.0 °F 92% 30.29 in 10.0 mi Calm Calm - 0.00 in   Partly Cloudy